Miscellaneous Local Product
Issued by NWS North Platte, NE

Home | Current Version | Previous Version | Text Only | Print | Product List | Glossary On
Versions: 1 2 3 4 5 6 7 8 9 10 11 12 13 14 15 16 17 18 19 20 21 22 23 24 25 26 27 28 29 30 31 32 33 34 35 36 37 38 39 40 41 42 43 44 45 46 47 48 49 50
000
AXUS43 KLBF 221810
MISLBF


WESTERN AND NORTH CENTRAL NEBRASKA HOURLY WEATHER ROUNDUP
NATIONAL WEATHER SERVICE NORTH PLATTE NE
100 PM CDT SUN OCT 22 2017

NOTE: "FAIR" INDICATES FEW OR NO CLOUDS BELOW 12,000 FEET WITH NO
SIGNIFICANT WEATHER AND/OR OBSTRUCTIONS TO VISIBILITY.

NOTE: STATIONS NOT REPORTING VARIABLES SUCH AS SKY/WEATHER OR
PRESSURE ARE PROVIDED BY RAWS AND APRS NETWORKS AND ARE NOT UNDER
NATIONAL WEATHER SERVICE QUALITY CONTROL.

...OBSERVATIONS IN AND NEAR THE EASTERN PANHANDLE OF NEBRASKA...

CITY           SKY/WX    TMP DP  RH WIND       PRES   REMARKS
PINE RIDGE     SUNNY     63  26  24 W13G25    29.98F
GORDON         FAIR      62  27  26 W18G24    30.00F
CHADRON        SUNNY     67  24  19 W16G24    29.98F
ALLIANCE       SUNNY     64  27  24 W23G33    30.03F
SIDNEY         SUNNY     66  26  22 W17G28    30.11F
CRESCENT LAKE    N/A     62  28  27 W16G23      N/A
$$

...OBSERVATIONS IN NORTHERN NEBRASKA AND FAR SOUTHERN SOUTH DAKOTA...

CITY           SKY/WX    TMP DP  RH WIND       PRES   REMARKS
WINNER         FAIR      64  28  25 SW21G28   29.96F
VALENTINE      SUNNY     65  26  23 W15G28    29.99S
THEDFORD       SUNNY     64  29  26 W20G26    30.04F
AINSWORTH      SUNNY     62  28  27 SW23G30   30.01S
O`NEILL        SUNNY     63  30  28 SW13      30.02F
ORD            SUNNY     63  25  23 SW15      30.04F
BROKEN BOW     SUNNY     63  30  28 W14       30.06F
VALENTINE NWR    N/A     60  27  28 SW14G21     N/A
HALSEY           N/A     62  26  25 SW9G18      N/A
BUTTE            N/A     62  27  26 SW20        N/A
CHAMBERS         N/A     62  35  36 S7          N/A
EWING            N/A     64  29  27 SW12G20     N/A
$$

...OBSERVATIONS IN SOUTHWEST NEBRASKA AND FAR NORTHEAST COLORADO...

CITY           SKY/WX    TMP DP  RH WIND       PRES   REMARKS
WRAY           FAIR      64  14  14 SW18      30.14F
HOLYOKE        FAIR      68  19  15 SW9G21    30.12F
IMPERIAL       SUNNY     66  18  15 SW15G23   30.11F
OGALLALA       SUNNY     65  24  21 SW13G20   30.09F
NORTH PLATTE   SUNNY     64  27  24 SW14G25   30.08F
MCCOOK         SUNNY     66  23  19 SW17G28   30.13F
LEXINGTON      SUNNY     64  27  25 SW14G22   30.11F
STAPLETON        N/A     61  30  31 SW6G18      N/A
GOTHENBURG       N/A     61  26  26 W3          N/A
CALLAWAY         N/A     59  28  30 W14         N/A
$$

...OBSERVATIONS IN CENTRAL LINCOLN COUNTY AREA...

CITY           SKY/WX    TMP DP  RH WIND       PRES   REMARKS
N.P. AIRPORT   SUNNY     64  27  24 SW14G25   30.08F
N.P. DOWNTOWN    N/A     63  29  27 W6          N/A
N.P. SOUTHEAST   N/A     64  29  26 SW9G21      N/A
N.P. HILLCREST   N/A     63  29  28 W17G24      N/A
$$

...SOME OBSERVATIONS FROM AROUND THE REGION...

CITY           SKY/WX    TMP DP  RH WIND       PRES   REMARKS
DENVER         MOSUNNY   63  25  23 VRB5      30.15F
LIMON          SUNNY     59  15  18 S5        30.18F
ASPEN          SUNNY     46  23  40 CALM      30.46S
LARAMIE        CLOUDY    54  23  30 SW30G39   30.20R
CASPER         LGT RAIN  55  26  32 SW30G41   30.09S
CHEYENNE       CLOUDY    58  24  27 W31G38    30.15F
SCOTTSBLUFF    SUNNY     66  28  24 W26G35    30.06F
GRAND ISLAND   SUNNY     65  29  25 SW16G22   30.09F
OMAHA          MOSUNNY   65  32  29 SW9       30.10F
SIOUX FALLS    SUNNY     62  35  36 SW12G18   30.02F
PIERRE         SUNNY     57  31  37 SW8       29.89F
RAPID CITY     SUNNY     64  23  21 SE10      29.90F
BISMARCK       CLOUDY    59  27  29 SW20G26   29.77F
KANSAS CITY    CLOUDY    60  46  59 NW7       30.13F
HILL CITY      SUNNY     67  23  19 W9        30.17F
WICHITA        SUNNY     66  38  35 VRB5      30.19F
DODGE CITY     SUNNY     66  17  15 W10       30.21F
OKLAHOMA CITY  SUNNY     63  42  46 NW12      30.23S
DALLAS         MOSUNNY   71  51  49 N14G22    30.15F
AMARILLO       SUNNY     62  23  22 SW10      30.29F
$$




USA.gov is the U.S. government's official web portal to all federal, state and local government web resources and services.